TimeCDT,TemperatureF,Dew PointF,Humidity,Sea Level PressureIn,VisibilityMPH,Wind Direction,Wind SpeedMPH,Gust SpeedMPH,PrecipitationIn,Events,Conditions,WindDirDegrees,DateUTC
12:15 AM,53.6,51.4,92,29.87,10.0,West,6.9,-,N/A,,Clear,280,2013-09-21 05:15:00
12:35 AM,53.6,51.3,92,29.87,10.0,WNW,6.9,-,N/A,,Clear,290,2013-09-21 05:35:00
12:55 AM,54.0,51.3,91,29.86,10.0,WNW,9.2,-,N/A,,Clear,290,2013-09-21 05:55:00
1:15 AM,54.1,51.3,90,29.86,10.0,WNW,9.2,-,N/A,,Clear,300,2013-09-21 06:15:00
1:35 AM,53.8,50.9,90,29.87,10.0,WNW,9.2,-,N/A,,Clear,300,2013-09-21 06:35:00
1:55 AM,53.6,50.7,90,29.86,10.0,WNW,6.9,-,N/A,,Clear,300,2013-09-21 06:55:00
2:15 AM,52.9,50.4,91,29.86,10.0,WNW,6.9,-,N/A,,Clear,300,2013-09-21 07:15:00
2:35 AM,52.7,50.0,91,29.86,10.0,WNW,8.1,-,N/A,,Clear,300,2013-09-21 07:35:00
2:55 AM,52.2,50.0,92,29.86,10.0,WNW,5.8,-,N/A,,Clear,300,2013-09-21 07:55:00
3:15 AM,52.0,49.6,92,29.86,10.0,NW,5.8,-,N/A,,Clear,310,2013-09-21 08:15:00
3:35 AM,51.8,49.5,92,29.86,10.0,NW,5.8,-,N/A,,Clear,310,2013-09-21 08:35:00
3:55 AM,51.1,49.1,93,29.86,10.0,NW,4.6,-,N/A,,Clear,310,2013-09-21 08:55:00
4:15 AM,50.5,48.6,93,29.86,10.0,WNW,3.5,-,N/A,,Clear,300,2013-09-21 09:15:00
4:35 AM,50.0,48.4,94,29.86,10.0,NW,3.5,-,N/A,,Clear,310,2013-09-21 09:35:00
4:55 AM,49.3,47.5,94,29.87,10.0,Calm,Calm,-,N/A,,Clear,0,2013-09-21 09:55:00
5:15 AM,48.2,46.6,94,29.87,10.0,Calm,Calm,-,N/A,,Clear,0,2013-09-21 10:15:00
5:35 AM,49.1,48.0,96,29.87,10.0,Calm,Calm,-,N/A,,Clear,0,2013-09-21 10:35:00
5:55 AM,49.3,47.8,95,29.88,10.0,Calm,Calm,-,N/A,,Clear,0,2013-09-21 10:55:00
6:15 AM,49.3,47.8,95,29.89,10.0,Calm,Calm,-,N/A,,Clear,0,2013-09-21 11:15:00
6:35 AM,49.5,47.8,94,29.89,10.0,NW,4.6,-,N/A,,Clear,320,2013-09-21 11:35:00
6:55 AM,50.0,48.2,94,29.89,10.0,NW,4.6,-,N/A,,Clear,310,2013-09-21 11:55:00
7:15 AM,50.2,48.6,94,29.90,10.0,NW,4.6,-,N/A,,Clear,310,2013-09-21 12:15:00
7:35 AM,51.1,49.5,94,29.90,10.0,NW,5.8,-,N/A,,Clear,320,2013-09-21 12:35:00
7:55 AM,52.5,50.0,91,29.91,10.0,NNW,8.1,-,N/A,,Clear,330,2013-09-21 12:55:00
8:15 AM,53.6,50.7,90,29.91,10.0,NNW,9.2,-,N/A,,Clear,330,2013-09-21 13:15:00
8:35 AM,54.5,50.5,86,29.92,10.0,NNW,11.5,-,N/A,,Clear,340,2013-09-21 13:35:00
8:55 AM,55.4,50.5,84,29.92,10.0,NNW,10.4,-,N/A,,Clear,340,2013-09-21 13:55:00
9:15 AM,56.5,50.0,79,29.92,10.0,NNW,8.1,-,N/A,,Clear,340,2013-09-21 14:15:00
9:35 AM,57.4,49.5,75,29.92,10.0,NNW,11.5,-,N/A,,Clear,330,2013-09-21 14:35:00
9:55 AM,58.6,48.4,69,29.92,10.0,NNW,9.2,-,N/A,,Clear,340,2013-09-21 14:55:00
10:15 AM,59.9,47.8,64,29.92,10.0,NNW,9.2,-,N/A,,Clear,340,2013-09-21 15:15:00
10:35 AM,59.9,47.5,64,29.93,10.0,NNW,6.9,-,N/A,,Clear,340,2013-09-21 15:35:00
10:55 AM,60.3,46.8,61,29.93,10.0,North,11.5,-,N/A,,Scattered Clouds,350,2013-09-21 15:55:00
11:15 AM,61.5,46.8,58,29.93,10.0,NNW,8.1,17.3,N/A,,Scattered Clouds,330,2013-09-21 16:15:00
11:35 AM,62.1,46.9,58,29.92,10.0,WNW,10.4,-,N/A,,Scattered Clouds,290,2013-09-21 16:35:00
11:55 AM,62.4,46.0,55,29.92,10.0,NW,9.2,17.3,N/A,,Scattered Clouds,310,2013-09-21 16:55:00
12:15 PM,61.9,45.7,55,29.93,10.0,NW,11.5,-,N/A,,Mostly Cloudy,320,2013-09-21 17:15:00
12:35 PM,64.4,46.8,53,29.93,10.0,NW,15.0,-,N/A,,Mostly Cloudy,310,2013-09-21 17:35:00
12:55 PM,64.2,46.8,53,29.92,10.0,NW,9.2,-,N/A,,Scattered Clouds,320,2013-09-21 17:55:00
1:15 PM,64.2,46.9,53,29.93,10.0,NNW,11.5,17.3,N/A,,Scattered Clouds,330,2013-09-21 18:15:00
1:35 PM,63.7,46.6,54,29.92,10.0,NNW,8.1,16.1,N/A,,Mostly Cloudy,330,2013-09-21 18:35:00
1:55 PM,65.5,46.8,51,29.92,10.0,NW,8.1,-,N/A,,Mostly Cloudy,310,2013-09-21 18:55:00
2:15 PM,65.1,46.4,51,29.92,10.0,NW,8.1,-,N/A,,Mostly Cloudy,320,2013-09-21 19:15:00
2:35 PM,63.9,46.4,53,29.91,10.0,NNW,8.1,-,N/A,,Mostly Cloudy,330,2013-09-21 19:35:00
2:55 PM,64.6,47.3,53,29.91,10.0,NW,11.5,16.1,N/A,,Mostly Cloudy,320,2013-09-21 19:55:00
3:15 PM,63.3,45.5,52,29.90,10.0,NNW,8.1,-,N/A,,Scattered Clouds,330,2013-09-21 20:15:00
3:35 PM,65.7,46.0,49,29.90,10.0,NW,11.5,-,N/A,,Scattered Clouds,320,2013-09-21 20:35:00
3:55 PM,65.3,46.0,50,29.90,10.0,NNW,10.4,-,N/A,,Scattered Clouds,330,2013-09-21 20:55:00
4:15 PM,65.7,46.2,49,29.90,10.0,NNW,9.2,-,N/A,,Scattered Clouds,330,2013-09-21 21:15:00
4:35 PM,64.9,46.0,50,29.90,10.0,NW,10.4,-,N/A,,Scattered Clouds,310,2013-09-21 21:35:00
4:55 PM,64.6,45.5,50,29.90,10.0,NW,10.4,-,N/A,,Scattered Clouds,320,2013-09-21 21:55:00
5:15 PM,63.9,45.9,52,29.90,10.0,NW,9.2,-,N/A,,Clear,320,2013-09-21 22:15:00
5:35 PM,63.3,46.0,53,29.90,10.0,NNW,8.1,-,N/A,,Clear,330,2013-09-21 22:35:00
5:55 PM,62.6,45.9,54,29.90,10.0,NNW,9.2,-,N/A,,Clear,340,2013-09-21 22:55:00
6:15 PM,61.7,46.2,57,29.91,10.0,NNW,6.9,-,N/A,,Clear,340,2013-09-21 23:15:00
6:35 PM,59.5,47.3,64,29.91,10.0,North,4.6,-,N/A,,Clear,350,2013-09-21 23:35:00
6:55 PM,56.7,48.0,73,29.91,10.0,North,4.6,-,N/A,,Clear,360,2013-09-21 23:55:00
7:15 PM,54.5,48.6,80,29.91,10.0,North,3.5,-,N/A,,Clear,10,2013-09-22 00:15:00
7:35 PM,53.1,48.2,84,29.92,10.0,North,4.6,-,N/A,,Clear,10,2013-09-22 00:35:00
7:55 PM,52.3,47.7,84,29.93,10.0,NE,3.5,-,N/A,,Clear,40,2013-09-22 00:55:00
8:15 PM,51.3,47.3,86,29.93,10.0,NE,5.8,-,N/A,,Clear,40,2013-09-22 01:15:00
8:35 PM,50.5,47.1,88,29.94,10.0,NE,4.6,-,N/A,,Clear,50,2013-09-22 01:35:00
8:55 PM,50.4,46.6,87,29.94,10.0,ENE,4.6,-,N/A,,Clear,60,2013-09-22 01:55:00
9:15 PM,50.0,46.4,87,29.94,10.0,ENE,6.9,-,N/A,,Clear,60,2013-09-22 02:15:00
9:35 PM,49.3,45.7,87,29.95,10.0,ENE,3.5,-,N/A,,Clear,60,2013-09-22 02:35:00
9:55 PM,48.2,45.5,90,29.95,10.0,ENE,3.5,-,N/A,,Clear,60,2013-09-22 02:55:00
10:15 PM,48.0,45.0,89,29.96,10.0,ENE,3.5,-,N/A,,Clear,70,2013-09-22 03:15:00
10:35 PM,47.5,44.8,90,29.96,10.0,ENE,3.5,-,N/A,,Clear,70,2013-09-22 03:35:00
10:55 PM,46.2,44.6,94,29.97,10.0,Calm,Calm,-,N/A,,Clear,0,2013-09-22 03:55:00
11:15 PM,45.9,44.2,94,29.97,10.0,Calm,Calm,-,N/A,,Clear,0,2013-09-22 04:15:00
11:35 PM,45.3,43.7,94,29.97,10.0,Calm,Calm,-,N/A,,Clear,0,2013-09-22 04:35:00
11:55 PM,44.4,43.0,95,29.98,10.0,Calm,Calm,-,N/A,,Clear,0,2013-09-22 04:55:00